Location: Izdebno
(52.6670°N, 16.2170°E)
Time: 14:04:53
(UTC+02:00)

A-11 Canister half - Pass Details

Date: 23 February 2024
Orbit: 1525 x 1683 km, 47.3° (Epoch: 24 April)

Event Time Altitude Azimuth Distance (km) Brightness Sun altitude
Rises 22:04:30 0° 235° (SW) 4,740 11.6 -40.3°
Reaches altitude 10° 22:07:41 10° 231° (SW) 3,740 11.0 -40.6°
Enters shadow 22:08:36 13° 229° (SW) 3,460 10.8 -40.7°
